User: anonymous   Login
Location: Hepcat Sky Observatory
(29.9800°N, 95.6500°W)
Time: 16:09:38
(UTC-05:00)
Language:

Cosmos 1602 Rocket - Orbit

View from above orbital plane
View from above orbital plane
View from above satellite
View from above satellite

Ground track
Ground track

The orbit data is extracted from the following two-line orbital elements,

1 15332U 84105B   14297.79688450  .00000658  00000-0  78158-4 0  7947
2 15332 082.5369 011.1751 0020033 318.6382 180.9360 14.82828322623349
Epoch (UTC): 24 October 2014 19:07:30
Eccentricity: 0.0020033
inclination: 82.5369°
perigee height: 606 km
apogee height: 634 km
right ascension of ascending node: 11.1751°
argument of perigee: 318.6382°
revolutions per day: 14.82828322
mean anomaly at epoch: 180.9360°
orbit number at epoch: 62334

The dashed part of the orbit path shows where the satellite is in the earth's shadow,  

DLR